This demonstration page uses our WeatherBlox Daily Observations layout. Learn more.

36.17497, -115.13722

Hourly Observations for July 17, 2015

Temp ( °F °C ) Dew Point ( °F °C ) Humidity (%) Winds ( mph kmh ) Pressure ( in mb ) Visibility ( mi km ) Precip ( " mm )
12:53 am 00:53 Clear 90 32 28 -2 11 11 SSW 6 9 29.65 1004 10 16.09344 0 0
1:53 am 01:53 Clear 86 30 28 -2 12 12 ESE 3 6 29.68 1005 10 16.09344 0 0
2:53 am 02:53 Clear 84 29 32 0 15 15 Calm 29.68 1005 10 16.09344 0 0
3:53 am 03:53 Clear 84 29 34 1 16 16 SSW 5 7 29.68 1005 10 16.09344 0 0
4:53 am 04:53 Clear 79 26 34 1 20 20 NW 7 11 29.71 1006 10 16.09344 0 0
5:53 am 05:53 Sunny 75 24 36 2 24 24 NW 7 11 29.71 1006 10 16.09344 0 0
6:53 am 06:53 Sunny 79 26 36 2 21 21 N 5 7 29.74 1007 10 16.09344 0 0
7:53 am 07:53 Sunny 84 29 34 1 16 16 E 3 6 29.74 1007 10 16.09344 0 0
8:53 am 08:53 Sunny 88 31 34 1 15 15 Calm 29.74 1007 10 16.09344 0 0
9:53 am 09:53 Sunny 93 34 34 1 12 12 S 5 7 29.71 1006 10 16.09344 0 0
10:53 am 10:53 Sunny 99 37 36 2 11 11 S 15 24 29.65 1004 10 16.09344 0 0
11:53 am 11:53 Sunny 100 38 37 3 11 11 SSW 18 30 29.62 1003 10 16.09344 0 0
12:53 pm 12:53 Sunny 100 38 36 2 10 10 SW 10 17 29.62 1003 10 16.09344 0 0
1:53 pm 13:53 Sunny 102 39 37 3 11 11 SW 12 19 29.56 1001 10 16.09344 0 0
2:53 pm 14:53 Sunny 104 40 41 5 12 12 WSW 17 28 29.53 1000 10 16.09344 0 0
3:53 pm 15:53 Sunny 106 41 41 5 11 11 WSW 13 20 29.5 999 10 16.09344 0 0
4:53 pm 16:53 Sunny 104 40 43 6 12 12 SW 14 22 29.47 998 10 16.09344 0 0
5:53 pm 17:53 Sunny 102 39 43 6 13 13 SW 16 26 29.47 998 10 16.09344 0 0
6:53 pm 18:53 Sunny 100 38 43 6 14 14 SW 17 28 29.47 998 10 16.09344 0 0
7:53 pm 19:53 Sunny 99 37 46 8 17 17 SW 20 31 29.5 999 10 16.09344 0 0
8:53 pm 20:53 Clear 97 36 48 9 19 19 SSW 12 19 29.53 1000 10 16.09344 0 0
9:53 pm 21:53 Clear 95 35 45 7 18 18 SW 16 26 29.56 1001 10 16.09344 0 0
10:53 pm 22:53 Clear 91 33 48 9 23 23 SSW 15 24 29.59 1002 10 16.09344 0 0
11:53 pm 23:53 Clear 91 33 45 7 20 20 S 9 15 29.62 1003 10 16.09344 0 0

Powered by AerisWeather